User: anonymous   Login
Location: Waco, TX
(31.5480°N, 97.1670°W)
Time: 21:58:24
(UTC-05:00)
Language:

ISS - Orbit

View from above orbital plane
View from above orbital plane
View from above satellite
View from above satellite

Ground track
Ground track

The orbit data is extracted from the following two-line orbital elements,

1 25544U 98067A   21138.03938995  .00001435  00000-0  34181-4 0  9995
2 25544  51.6434 131.8387 0003126  14.0912  90.8182 15.49017124283921
Epoch (UTC): 18 May 2021 00:56:43
Eccentricity: 0.0003126
inclination: 51.6434°
perigee height: 417 km
apogee height: 422 km
right ascension of ascending node: 131.8387°
argument of perigee: 14.0912°
revolutions per day: 15.49017124
mean anomaly at epoch: 90.8182°
orbit number at epoch: 28392

The dashed part of the orbit path shows where the satellite is in the earth's shadow,  

DLR